| time (UTC) | temp F | wind direction | speed knots | gust knots | rain 1hr in | rain 24hr in | rain mn in | humidity % | barometer mb |
| 20260505051558 | 45 | 259 | 1.7 | 11.3 | 0.00 | 0.79 | 0.00 | 89 | 1006.5 |
| 20260505041558 | 46 | 221 | 2.6 | 8.7 | 0.00 | 0.81 | 0.00 | 86 | 1005.7 |
| 20260505040100 | 47 | 240 | 1.7 | 7.0 | 0.00 | 0.81 | 0.00 | 85 | 1005.4 |
| 20260505034558 | 47 | 219 | 1.7 | 8.7 | 0.00 | 0.83 | 0.00 | 85 | 1005.4 |
| 20260505033056 | 47 | 286 | 0.9 | 6.1 | 0.00 | 0.83 | 0.00 | 83 | 1005.2 |
| 20260505031610 | 48 | 240 | 3.5 | 7.8 | 0.00 | 0.83 | 0.00 | 82 | 1005.0 |
| 20260505030059 | 48 | 267 | 2.6 | 9.6 | 0.00 | 0.83 | 0.00 | 82 | 1004.9 |
| 20260505024608 | 49 | 214 | 4.3 | 14.8 | 0.00 | 0.83 | 0.83 | 80 | 1004.5 |
| 20260505023056 | 49 | 184 | 5.2 | 12.2 | 0.00 | 0.83 | 0.83 | 80 | 1004.4 |
| 20260505021612 | 49 | 265 | 3.5 | 13.9 | 0.00 | 0.83 | 0.83 | 80 | 1004.4 |
| 20260505020057 | 49 | 14 | 4.3 | 10.4 | 0.00 | 0.83 | 0.83 | 80 | 1004.3 |
| 20260505014555 | 49 | 238 | 2.6 | 11.3 | 0.00 | 0.83 | 0.83 | 80 | 1004.2 |
| 20260505013058 | 49 | 205 | 2.6 | 14.8 | 0.00 | 0.83 | 0.83 | 80 | 1004.1 |
| 20260505011557 | 50 | 195 | 5.2 | 19.1 | 0.00 | 0.83 | 0.83 | 78 | 1004.2 |
| 20260505010056 | 50 | 211 | 5.2 | 15.6 | 0.00 | 0.83 | 0.83 | 78 | 1004.0 |
| 20260505004601 | 50 | 309 | 4.3 | 12.2 | 0.00 | 0.87 | 0.83 | 77 | 1003.9 |
| 20260505003055 | 50 | 242 | 6.1 | 17.4 | 0.00 | 0.87 | 0.83 | 76 | 1003.7 |
| 20260505001556 | 50 | 217 | 5.2 | 13.0 | 0.00 | 0.87 | 0.83 | 75 | 1003.5 |
| 20260505000058 | 50 | 240 | 1.7 | 7.0 | 0.00 | 0.87 | 0.83 | 71 | 1003.2 |
| 20260504234555 | 51 | 252 | 5.2 | 13.9 | 0.00 | 0.99 | 0.83 | 67 | 1003.0 |
| 20260504233102 | 50 | 244 | 7.0 | 15.6 | 0.00 | 0.99 | 0.83 | 68 | 1002.8 |
| 20260504231557 | 48 | 226 | 2.6 | 9.6 | 0.00 | 0.99 | 0.83 | 73 | 1002.5 |
| 20260504230058 | 48 | 246 | 0.9 | 7.8 | 0.00 | 0.99 | 0.83 | 73 | 1002.3 |
| 20260504224555 | 49 | 265 | 0.9 | 6.1 | 0.00 | 1.08 | 0.83 | 71 | 1002.4 |
| 20260504223103 | 50 | 53 | 0.9 | 13.0 | 0.00 | 1.08 | 0.83 | 64 | 1002.1 |
| 20260504221605 | 51 | 0 | 3.5 | 14.8 | 0.00 | 1.08 | 0.83 | 64 | 1001.9 |
| 20260504220135 | 51 | 0 | 2.6 | 12.2 | 0.00 | 1.08 | 0.83 | 61 | 1001.7 |
| 20260504214558 | 52 | 107 | 2.6 | 9.6 | 0.00 | 1.21 | 0.83 | 61 | 1001.4 |
| 20260504213123 | 53 | 221 | 4.3 | 12.2 | 0.00 | 1.21 | 0.83 | 60 | 1001.3 |
| 20260504211557 | 53 | 243 | 3.5 | 14.8 | 0.00 | 1.21 | 0.83 | 60 | 1001.0 |
| 20260504210101 | 54 | 184 | 6.1 | 12.2 | 0.00 | 1.21 | 0.83 | 59 | 1001.0 |
| 20260504204604 | 54 | 226 | 4.3 | 13.9 | 0.00 | 1.27 | 0.83 | 60 | 1000.7 |
| 20260504203100 | 53 | 220 | 7.0 | 23.5 | 0.00 | 1.27 | 0.83 | 60 | 1000.4 |
| 20260504201609 | 53 | 217 | 6.1 | 18.2 | 0.00 | 1.27 | 0.83 | 66 | 1000.4 |
| 20260504200108 | 53 | 205 | 5.2 | 20.0 | 0.00 | 1.27 | 0.83 | 66 | 1000.3 |
| 20260504194555 | 53 | 265 | 3.5 | 19.1 | 0.00 | 1.33 | 0.83 | 69 | 1000.0 |
| 20260504193055 | 52 | 184 | 7.8 | 20.9 | 0.00 | 1.33 | 0.83 | 70 | 999.5 |
| 20260504191556 | 52 | 208 | 8.7 | 23.5 | 0.00 | 1.33 | 0.83 | 72 | 999.5 |
| 20260504190057 | 52 | 263 | 10.4 | 21.7 | 0.00 | 1.33 | 0.83 | 74 | 999.3 |
| 20260504184559 | 50 | 227 | 6.1 | 17.4 | 0.00 | 1.39 | 0.83 | 78 | 999.1 |
| 20260504183059 | 50 | 266 | 7.0 | 20.0 | 0.00 | 1.39 | 0.83 | 81 | 998.8 |
| 20260504181556 | 49 | 232 | 7.8 | 25.2 | 0.00 | 1.39 | 0.83 | 83 | 998.9 |
| 20260504180056 | 48 | 262 | 5.2 | 15.6 | 0.00 | 1.39 | 0.83 | 85 | 998.6 |
| 20260504174559 | 47 | 230 | 6.1 | 19.1 | 0.00 | 1.39 | 0.83 | 86 | 998.3 |
| 20260504173059 | 46 | 225 | 6.1 | 19.1 | 0.00 | 1.39 | 0.83 | 89 | 998.1 |
| 20260504171558 | 46 | 223 | 7.0 | 18.2 | 0.00 | 1.39 | 0.83 | 90 | 997.8 |
| 20260504170132 | 45 | 213 | 2.6 | 26.9 | 0.00 | 1.39 | 0.83 | 92 | 997.6 |
| 20260504100103 | 36 | 234 | 4.3 | 20.9 | 0.03 | 0.78 | 0.22 | 98 | 982.8 |
| 20260504081556 | 37 | 261 | 1.7 | 7.0 | 0.04 | 0.73 | 0.17 | 100 | 978.0 |